WE8L Weather Reports


time (UTC)temp
F
wind
direction
speed
knots
gust
knots
rain 1hr
in
rain 24hr
in
rain mn
in
humidity
%
barometer
mb
20260509024052 57 54 0.0 0.9 0.00 0.00 0.00 85 1013.4
20260509023550 57 51 0.0 0.9 0.00 0.00 0.00 86 1013.3
20260509023046 57 51 0.0 0.0 0.00 0.00 0.00 86 1013.3
20260509022543 57 51 0.0 0.9 0.00 0.00 0.00 86 1013.4
20260509022041 57 65 0.0 0.0 0.00 0.00 0.00 86 1013.2
20260509021538 57 62 0.0 0.0 0.00 0.00 0.00 87 1013.2
20260509021034 57 75 0.0 0.0 0.00 0.00 0.00 87 1012.9
20260509020533 57 76 0.0 0.0 0.00 0.00 0.00 85 1012.7
20260509020029 57 77 0.0 0.0 0.00 0.00 0.00 85 1012.6
20260509015529 57 74 0.0 0.0 0.00 0.00 0.00 86 1012.6
20260509015025 57 73 0.0 0.0 0.00 0.00 0.00 86 1012.5
20260509014522 57 74 0.0 0.0 0.00 0.00 0.00 86 1012.6
20260509014018 58 74 0.0 0.0 0.00 0.00 0.00 85 1012.6
20260509013515 57 74 0.0 0.0 0.00 0.00 0.00 85 1012.6
20260509013011 58 74 0.0 0.0 0.00 0.00 0.00 84 1012.7
20260509012508 59 109 0.0 0.0 0.00 0.00 0.00 84 1012.7
20260509012004 59 147 0.9 1.7 0.00 0.00 0.00 83 1012.7
20260509011502 59 74 0.0 0.9 0.00 0.00 0.00 81 1012.7
20260509010959 60 33 0.0 0.0 0.00 0.00 0.00 79 1012.6
20260509010457 60 34 0.9 0.9 0.00 0.00 0.00 76 1012.7
20260509005954 59 251 0.0 0.9 0.00 0.00 0.00 78 1012.6
20260509005452 59 43 0.9 0.9 0.00 0.00 0.00 81 1012.7
20260509004951 60 131 0.0 0.0 0.00 0.00 0.00 81 1012.3
20260509004449 60 131 0.0 0.0 0.00 0.00 0.00 81 1012.0
20260509003946 60 131 0.0 0.0 0.00 0.00 0.00 80 1011.8
20260509003444 60 131 0.0 0.0 0.00 0.00 0.00 78 1011.8
20260509002941 60 132 0.0 0.0 0.00 0.00 0.00 78 1011.9
20260509002439 60 143 0.9 0.9 0.00 0.00 0.00 78 1012.0
20260509001936 60 142 0.0 0.0 0.00 0.00 0.00 79 1011.9
20260509001432 60 142 0.9 0.9 0.00 0.00 0.00 78 1011.9
20260509000929 60 294 0.0 0.0 0.00 0.00 0.00 77 1012.1
20260509000427 61 295 0.0 0.0 0.00 0.00 0.00 78 1012.2
20260508235922 61 295 0.0 0.0 0.00 0.00 0.00 79 1011.9
20260508235421 61 294 0.0 0.0 0.00 0.00 0.00 78 1011.9
20260508234917 61 294 0.0 0.0 0.00 0.00 0.00 77 1011.9
20260508234414 62 294 0.0 0.0 0.00 0.00 0.00 76 1011.8
20260508233912 62 295 0.0 0.0 0.00 0.00 0.00 73 1011.9
20260508233411 62 295 0.0 0.0 0.00 0.00 0.00 71 1011.7
20260508232908 62 295 0.0 0.0 0.00 0.00 0.00 73 1011.7
20260508232404 62 295 0.0 0.0 0.00 0.00 0.00 71 1011.8
20260508231902 63 295 0.0 0.0 0.00 0.00 0.00 72 1011.8
20260508231359 64 295 0.0 0.0 0.00 0.00 0.00 69 1011.9
20260508230855 64 295 0.0 0.0 0.00 0.00 0.00 64 1012.0
20260508230352 64 295 0.0 0.0 0.00 0.00 0.00 63 1011.7
20260508225849 65 295 0.0 0.0 0.00 0.00 0.00 63 1011.7
20260508225345 66 295 0.0 0.0 0.00 0.00 0.00 55 1011.8
20260508224844 66 295 0.0 0.0 0.00 0.00 0.00 51 1011.8
20260508224341 67 261 0.0 0.9 0.00 0.00 0.00 48 1011.9
20260508223838 66 261 0.0 0.9 0.00 0.00 0.00 48 1011.8
20260508223335 67 261 0.0 0.0 0.00 0.00 0.00 47 1011.5
20260508222833 67 261 0.0 0.0 0.00 0.00 0.00 48 1011.7
20260508222330 67 261 0.0 0.0 0.00 0.00 0.00 49 1011.7
20260508221827 67 261 0.0 0.0 0.00 0.00 0.00 49 1011.6
20260508221322 67 261 0.0 0.0 0.00 0.00 0.00 49 1011.5
20260508220819 67 261 0.0 0.0 0.00 0.00 0.00 44 1011.6
20260508220315 67 261 0.0 0.9 0.00 0.00 0.00 44 1011.6
20260508215812 68 261 0.0 0.9 0.00 0.00 0.00 44 1011.6
20260508215308 68 261 0.0 0.9 0.00 0.00 0.00 43 1011.6
20260508214806 68 263 0.9 1.7 0.00 0.00 0.00 42 1011.6
20260508214302 68 222 0.0 0.9 0.00 0.00 0.00 42 1011.7
20260508213759 68 175 0.9 4.3 0.00 0.00 0.00 43 1011.6
20260508213256 68 229 1.7 1.7 0.00 0.00 0.00 42 1011.5
20260508212752 68 166 0.0 2.6 0.00 0.00 0.00 44 1011.6
20260508212248 68 3 0.9 1.7 0.00 0.00 0.00 42 1011.7
20260508211744 68 253 1.7 1.7 0.00 0.00 0.00 42 1011.6
20260508211240 68 266 2.6 2.6 0.00 0.00 0.00 43 1011.9
20260508210738 68 197 0.9 1.7 0.00 0.00 0.00 43 1012.0
20260508210235 68 216 0.0 0.9 0.00 0.00 0.00 41 1011.8
20260508205732 68 219 1.7 5.2 0.00 0.00 0.00 42 1012.1
20260508205228 68 214 0.0 0.9 0.00 0.00 0.00 43 1012.0
20260508204724 68 216 0.0 1.7 0.00 0.00 0.00 41 1012.3
20260508204221 68 222 0.9 2.6 0.00 0.00 0.00 40 1012.3
20260508203717 68 214 0.9 0.9 0.00 0.00 0.00 42 1012.7
20260508203213 68 240 0.0 1.7 0.00 0.00 0.00 43 1012.8
20260508202709 68 245 0.0 1.7 0.00 0.00 0.00 41 1012.6
20260508202207 68 252 1.7 4.3 0.00 0.00 0.00 41 1012.7
20260508201704 68 278 0.9 2.6 0.00 0.00 0.00 40 1012.8
20260508201200 68 242 2.6 4.3 0.00 0.00 0.00 40 1013.0
20260508200657 68 251 0.9 1.7 0.00 0.00 0.00 44 1012.9
20260508200153 68 266 2.6 5.2 0.00 0.00 0.00 40 1012.9
20260508195650 68 326 2.6 2.6 0.00 0.00 0.00 40 1012.9
20260508195146 68 254 0.9 4.3 0.00 0.00 0.00 39 1012.9
20260508194643 68 28 2.6 2.6 0.00 0.00 0.00 40 1012.8
20260508194140 68 315 1.7 2.6 0.00 0.00 0.00 40 1013.2
20260508193637 68 254 2.6 2.6 0.00 0.00 0.00 41 1013.2
20260508193133 68 266 1.7 2.6 0.00 0.00 0.00 40 1013.0
20260508192630 68 247 1.7 2.6 0.00 0.00 0.00 40 1013.1
20260508192128 68 279 2.6 2.6 0.00 0.00 0.00 39 1013.2
20260508191624 68 261 0.9 4.3 0.00 0.00 0.00 40 1013.2
20260508191121 68 289 2.6 4.3 0.00 0.00 0.00 39 1013.3
20260508190619 69 221 2.6 5.2 0.00 0.00 0.00 39 1013.4
20260508190114 70 205 3.5 6.1 0.00 0.00 0.00 40 1013.6
20260508185612 70 267 2.6 2.6 0.00 0.00 0.00 39 1013.4
20260508185109 70 168 5.2 8.7 0.00 0.00 0.00 39 1013.4
20260508184606 70 272 0.9 4.3 0.00 0.00 0.00 39 1013.8
20260508184103 69 249 0.9 2.6 0.00 0.00 0.00 39 1013.9
20260508183559 70 222 3.5 5.2 0.00 0.00 0.00 39 1013.8
20260508183055 69 109 2.6 4.3 0.00 0.00 0.00 41 1013.7
20260508182552 68 217 0.9 5.2 0.00 0.00 0.00 40 1014.0
20260508182049 69 278 4.3 7.0 0.00 0.00 0.00 39 1014.2
20260508181543 69 237 0.9 2.6 0.00 0.00 0.00 42 1014.2
20260508181042 68 237 1.7 7.0 0.00 0.00 0.00 41 1014.2
20260508180538 68 285 3.5 5.2 0.00 0.00 0.00 40 1014.5
20260508180034 68 242 2.6 5.2 0.00 0.00 0.00 39 1014.5
20260508175531 69 248 4.3 7.0 0.00 0.00 0.00 40 1014.7
20260508175028 69 265 1.7 2.6 0.00 0.00 0.00 40 1014.5
20260508174526 68 225 2.6 5.2 0.00 0.00 0.00 42 1014.7
20260508174023 68 217 1.7 4.3 0.00 0.00 0.00 42 1014.5
20260508173520 67 236 1.7 2.6 0.00 0.00 0.00 44 1014.6
20260508173016 67 234 1.7 2.6 0.00 0.00 0.00 44 1014.9
20260508172513 67 249 2.6 5.2 0.00 0.00 0.00 45 1015.2
20260508172009 66 89 0.0 1.7 0.00 0.00 0.00 47 1015.1
20260508171506 66 189 1.7 5.2 0.00 0.00 0.00 45 1015.2
20260508171002 66 233 4.3 5.2 0.00 0.00 0.00 44 1015.2
20260508170500 66 248 2.6 4.3 0.00 0.00 0.00 44 1015.3
20260508165957 66 280 1.7 2.6 0.00 0.00 0.00 46 1015.3
20260508165455 67 239 2.6 2.6 0.00 0.00 0.00 44 1015.5
20260508164950 67 202 1.7 2.6 0.00 0.00 0.00 46 1015.7
20260508164447 66 301 1.7 4.3 0.00 0.00 0.00 46 1015.7
20260508163944 66 285 1.7 5.2 0.00 0.00 0.00 45 1015.8
20260508163442 66 230 3.5 5.2 0.00 0.00 0.00 45 1016.0
20260508162937 67 229 2.6 4.3 0.00 0.00 0.00 46 1016.0
20260508162435 67 308 3.5 5.2 0.00 0.00 0.00 45 1016.1
20260508161932 67 240 0.9 1.7 0.00 0.00 0.00 46 1016.0
20260508161429 66 249 1.7 6.1 0.00 0.00 0.00 45 1016.0
20260508160926 66 226 1.7 4.3 0.00 0.00 0.00 47 1016.2
20260508160425 66 258 1.7 2.6 0.00 0.00 0.00 47 1016.1
20260508155921 66 303 2.6 4.3 0.00 0.00 0.00 47 1016.3
20260508155418 65 273 0.9 2.6 0.00 0.00 0.00 52 1016.3
20260508154915 65 209 1.7 5.2 0.00 0.00 0.00 47 1016.3
20260508154413 65 235 2.6 4.3 0.00 0.00 0.00 47 1016.3
20260508153909 64 178 0.9 6.1 0.00 0.00 0.00 52 1016.4
20260508153406 64 232 3.5 5.2 0.00 0.00 0.00 47 1016.5
20260508152902 64 333 1.7 5.2 0.00 0.00 0.00 52 1016.5
20260508152359 64 279 2.6 4.3 0.00 0.00 0.00 49 1016.7
20260508151855 63 294 2.6 2.6 0.00 0.00 0.00 50 1016.6
20260508151352 63 273 3.5 5.2 0.00 0.00 0.00 49 1016.7
20260508150848 62 267 0.9 4.3 0.00 0.00 0.00 51 1016.6
20260508150346 63 284 3.5 6.1 0.00 0.00 0.00 49 1016.7
20260508145841 62 224 0.9 4.3 0.00 0.00 0.00 50 1016.7
20260508145338 62 222 2.6 2.6 0.00 0.00 0.00 53 1016.9
20260508144835 61 247 4.3 6.1 0.00 0.00 0.00 50 1017.1
20260508144333 61 197 2.6 2.6 0.00 0.00 0.00 51 1016.9
20260508143830 61 325 2.6 5.2 0.00 0.00 0.00 53 1016.9
20260508143327 61 212 0.9 2.6 0.00 0.00 0.00 52 1016.7
20260508142824 60 247 1.7 2.6 0.00 0.00 0.00 53 1017.0
20260508142320 60 352 1.7 1.7 0.00 0.00 0.00 53 1016.7
20260508141817 59 350 0.0 4.3 0.00 0.00 0.00 53 1017.0
20260508141314 59 239 3.5 6.1 0.00 0.00 0.00 52 1017.3
20260508140811 59 279 3.5 6.1 0.00 0.00 0.00 53 1017.0
20260508140308 58 264 1.7 2.6 0.00 0.00 0.00 53 1017.2
20260508135804 58 289 3.5 6.1 0.00 0.00 0.00 52 1017.3
20260508135300 58 252 2.6 4.3 0.00 0.00 0.00 53 1017.1
20260508134756 57 234 2.6 4.3 0.00 0.00 0.00 53 1017.4
20260508134253 57 250 4.3 7.0 0.00 0.00 0.00 52 1017.2
20260508133750 57 146 0.9 5.2 0.00 0.00 0.00 53 1017.1
20260508133248 57 242 3.5 5.2 0.00 0.00 0.00 53 1017.2
20260508132745 56 287 2.6 6.1 0.00 0.00 0.00 54 1017.3
20260508132243 55 252 0.9 1.7 0.00 0.00 0.00 55 1017.0
20260508131738 55 294 0.9 1.7 0.00 0.00 0.00 55 1017.1
20260508131235 55 267 1.7 2.6 0.00 0.00 0.00 54 1017.2
20260508130731 55 258 2.6 2.6 0.00 0.00 0.00 54 1017.3
20260508130229 56 237 1.7 2.6 0.00 0.00 0.00 54 1017.0
20260508125724 56 279 2.6 5.2 0.00 0.00 0.00 52 1017.3
20260508125220 56 209 0.9 2.6 0.00 0.00 0.00 53 1017.2
20260508124719 56 261 0.9 5.2 0.00 0.00 0.00 53 1017.1
20260508124216 56 197 1.7 2.6 0.00 0.00 0.00 54 1017.3
20260508123714 55 176 0.0 0.9 0.00 0.00 0.00 55 1017.0
20260508123212 54 188 2.6 4.3 0.00 0.00 0.00 54 1016.7
20260508122707 54 171 1.7 2.6 0.00 0.00 0.00 55 1016.9
20260508122204 53 172 0.0 2.6 0.00 0.00 0.00 57 1016.9
20260508121702 53 173 1.7 2.6 0.00 0.00 0.00 59 1017.0
20260508121200 53 153 0.0 1.7 0.00 0.00 0.00 59 1017.2
20260508120657 52 150 0.0 1.7 0.00 0.00 0.00 61 1017.0
20260508120156 52 172 0.9 1.7 0.00 0.00 0.00 60 1017.0
20260508115653 51 152 0.0 1.7 0.00 0.00 0.00 61 1017.0
20260508115150 51 170 0.9 1.7 0.00 0.00 0.00 61 1017.0
20260508114647 51 171 0.0 0.9 0.00 0.00 0.00 61 1016.7
20260508114143 51 157 0.0 1.7 0.00 0.00 0.00 60 1016.7
20260508113640 51 168 0.9 1.7 0.00 0.00 0.00 60 1017.0
20260508113138 51 165 0.0 1.7 0.00 0.00 0.00 60 1016.7
20260508112634 51 169 0.9 1.7 0.00 0.00 0.00 59 1016.6
20260508112131 51 169 0.9 1.7 0.00 0.00 0.00 58 1016.6
20260508111628 51 168 0.0 0.9 0.00 0.00 0.00 59 1016.4
20260508111120 51 162 0.0 1.7 0.00 0.00 0.00 58 1016.4
20260508110618 51 171 1.7 2.6 0.00 0.00 0.00 58 1016.5
20260508110114 51 169 0.9 0.9 0.00 0.00 0.00 58 1016.4
20260508105614 51 168 0.9 1.7 0.00 0.00 0.00 59 1016.4
20260508105111 51 167 0.0 0.9 0.00 0.00 0.00 58 1016.5
20260508104609 51 168 0.9 1.7 0.00 0.00 0.00 58 1016.3
20260508104105 51 164 0.0 1.7 0.00 0.00 0.00 58 1016.3
20260508103602 51 162 0.0 0.9 0.00 0.00 0.00 59 1016.4
20260508103100 51 148 0.0 0.9 0.00 0.00 0.00 61 1016.5
20260508102557 51 151 0.0 0.9 0.00 0.00 0.00 60 1016.5
20260508102054 51 165 0.9 1.7 0.00 0.00 0.00 58 1016.5
20260508101552 51 162 0.9 1.7 0.00 0.00 0.00 59 1016.5
20260508101049 51 164 0.0 0.9 0.00 0.00 0.00 60 1016.3
20260508100547 51 164 0.0 0.9 0.00 0.00 0.00 61 1016.3
20260508100043 51 166 0.9 1.7 0.00 0.00 0.00 60 1016.2
20260508095541 50 164 0.0 1.7 0.00 0.00 0.00 62 1016.3
20260508095037 50 163 0.0 0.9 0.00 0.00 0.00 62 1016.4
20260508094535 50 163 0.0 0.9 0.00 0.00 0.00 63 1016.5
20260508094031 49 163 0.0 0.0 0.00 0.00 0.00 64 1016.4
20260508093528 49 163 0.0 0.9 0.00 0.00 0.00 65 1016.3
20260508093026 49 163 0.0 0.9 0.00 0.00 0.00 68 1016.4
20260508092523 49 163 0.0 0.0 0.00 0.00 0.00 66 1016.4
20260508092022 49 163 0.0 0.0 0.00 0.00 0.00 67 1016.5
20260508091519 49 163 0.0 0.9 0.00 0.00 0.00 66 1016.5
20260508091016 49 163 0.0 0.9 0.00 0.00 0.00 65 1016.5
20260508090514 49 163 0.0 0.0 0.00 0.00 0.00 65 1016.6
20260508090011 49 163 0.0 0.9 0.00 0.00 0.00 66 1016.7
20260508085507 49 163 0.0 0.9 0.00 0.00 0.00 66 1016.6
20260508085004 49 163 0.0 0.9 0.00 0.00 0.00 64 1016.4
20260508084501 49 163 0.0 0.9 0.00 0.00 0.00 62 1016.3
20260508083959 49 163 0.9 0.9 0.00 0.00 0.00 63 1016.3
20260508083455 49 163 0.0 0.9 0.00 0.00 0.00 62 1016.4
20260508082950 49 163 0.9 0.9 0.00 0.00 0.00 63 1016.5
20260508082447 49 162 0.9 0.9 0.00 0.00 0.00 63 1016.3
20260508081945 49 162 0.0 0.9 0.00 0.00 0.00 63 1016.2
20260508081442 50 163 0.0 1.7 0.00 0.00 0.00 61 1016.5
20260508080937 50 162 0.0 0.9 0.00 0.00 0.00 62 1016.2
20260508080436 49 162 0.0 0.9 0.00 0.00 0.00 62 1016.4
20260508075932 49 162 0.0 0.9 0.00 0.00 0.00 63 1016.2
20260508075430 49 162 0.0 0.0 0.00 0.00 0.00 63 1016.3
20260508074927 49 162 0.0 0.9 0.00 0.00 0.00 63 1016.3
20260508074425 49 162 0.0 0.0 0.00 0.00 0.00 63 1016.2
20260508073921 49 162 0.0 0.0 0.00 0.00 0.00 62 1016.4
20260508073419 49 162 0.0 0.9 0.00 0.00 0.00 62 1016.4
20260508072916 49 162 0.0 0.9 0.00 0.00 0.00 61 1016.3
20260508072412 50 162 0.0 0.9 0.00 0.00 0.00 62 1016.1
20260508071909 50 162 0.9 0.9 0.00 0.00 0.00 61 1016.4
20260508071407 50 162 0.9 0.9 0.00 0.00 0.00 60 1016.4
20260508070905 50 161 0.0 0.9 0.00 0.00 0.00 60 1016.4
20260508070402 50 161 0.0 1.7 0.00 0.00 0.00 59 1016.4
20260508065900 50 160 0.0 0.9 0.00 0.00 0.00 60 1016.5
20260508065358 50 163 0.9 0.9 0.00 0.00 0.00 59 1016.5
20260508064856 50 159 0.0 0.9 0.00 0.00 0.00 59 1016.5
20260508064353 50 160 0.0 1.7 0.00 0.00 0.00 59 1016.6
20260508063851 50 152 0.0 0.9 0.00 0.00 0.00 59 1016.7
20260508063348 50 159 0.0 1.7 0.00 0.00 0.00 59 1016.9
20260508062845 50 152 0.0 0.9 0.00 0.00 0.00 58 1017.1
20260508062343 50 154 0.0 0.9 0.00 0.00 0.00 59 1017.1
20260508061840 50 159 0.9 1.7 0.00 0.00 0.00 58 1017.0
20260508061337 50 150 0.0 0.9 0.00 0.00 0.00 58 1017.0
20260508060833 50 152 0.0 0.9 0.00 0.00 0.00 58 1017.1
20260508060331 50 152 0.0 0.9 0.00 0.00 0.00 58 1017.2
20260508055826 50 153 0.0 0.9 0.00 0.00 0.00 57 1017.2
20260508055324 50 154 0.9 0.9 0.00 0.00 0.00 59 1017.2
20260508054820 50 130 0.0 0.9 0.00 0.00 0.00 60 1017.1
20260508054318 49 130 0.0 0.0 0.00 0.00 0.00 60 1017.1
20260508053814 50 130 0.0 0.0 0.00 0.00 0.00 59 1017.2
20260508053312 50 130 0.0 0.0 0.00 0.00 0.00 58 1017.4
20260508052809 50 134 0.0 0.0 0.00 0.00 0.00 57 1017.2
20260508052307 50 134 0.0 0.9 0.00 0.00 0.00 57 1017.2
20260508051802 50 132 0.0 0.0 0.00 0.00 0.00 57 1017.2
20260508051257 51 132 0.0 0.0 0.00 0.00 0.00 57 1017.3
20260508050754 51 132 0.0 0.9 0.00 0.00 0.00 56 1017.1
20260508050252 50 135 0.9 0.9 0.00 0.00 0.00 55 1017.1
20260508045747 50 132 0.0 0.9 0.00 0.00 0.00 57 1017.1
20260508045245 50 133 0.0 0.0 0.00 0.00 0.00 57 1017.1
20260508044742 50 134 0.0 0.0 0.00 0.00 0.00 57 1017.2
20260508044239 50 130 0.0 0.0 0.00 0.00 0.00 57 1017.1
20260508043735 50 130 0.0 0.0 0.00 0.00 0.00 57 1017.0
20260508043233 50 130 0.0 0.0 0.00 0.00 0.00 57 1017.0
20260508042729 50 134 0.0 0.0 0.00 0.00 0.00 57 1017.1
20260508042227 50 134 0.0 0.0 0.00 0.00 0.00 57 1017.1
20260508041723 51 129 0.0 0.9 0.00 0.00 0.00 57 1016.9
20260508041220 51 134 0.0 0.0 0.00 0.00 0.00 57 1016.9
20260508040717 51 134 0.0 0.0 0.00 0.00 0.00 56 1016.9
20260508040214 51 142 0.0 0.9 0.00 0.00 0.00 54 1017.0
20260508035711 51 174 0.9 0.9 0.00 0.00 0.00 54 1017.1
20260508035208 52 134 0.0 0.0 0.00 0.00 0.00 54 1016.9
20260508034705 52 196 0.9 0.9 0.00 0.00 0.00 55 1016.7
20260508034202 51 133 0.0 0.9 0.00 0.00 0.00 55 1017.0
20260508033659 51 140 0.0 0.9 0.00 0.00 0.00 55 1016.9
20260508033158 51 151 0.0 0.9 0.00 0.00 0.00 55 1016.9
20260508032654 51 152 0.9 1.7 0.00 0.00 0.00 55 1016.9
20260508032151 51 155 0.0 0.0 0.00 0.00 0.00 56 1016.9
20260508031648 51 160 0.9 1.7 0.00 0.00 0.00 56 1017.0
20260508031144 51 142 0.0 0.0 0.00 0.00 0.00 57 1016.9
20260508030641 51 158 0.0 0.9 0.00 0.00 0.00 57 1016.9
20260508030139 51 170 0.9 0.9 0.00 0.00 0.00 56 1017.0
20260508025635 51 172 0.0 0.9 0.00 0.00 0.00 58 1016.7
20260508025132 51 169 0.9 0.9 0.00 0.00 0.00 57 1016.9
20260508024627 51 158 0.0 0.9 0.00 0.00 0.00 57 1017.0